Time,TemperatureF,DewpointF,PressureIn,WindDirection,WindDirectionDegrees,WindSpeedMPH,WindSpeedGustMPH,Humidity,HourlyPrecipIn,Conditions,Clouds,dailyrainin,SoftwareType,DateUTC
2013-06-19 00:03:00,76.4,15.5,29.73,NW,314,4.0,7.0,10,0.00,,,0.00,WUHU216DAVISVP2,2013-06-19 07:03:00,
2013-06-19 00:08:00,76.0,17.4,29.73,NW,314,4.0,6.0,11,0.00,,,0.00,WUHU216DAVISVP2,2013-06-19 07:08:00,
2013-06-19 00:13:00,75.8,17.3,29.73,NW,312,4.0,7.0,11,0.00,,,0.00,WUHU216DAVISVP2,2013-06-19 07:13:00,
2013-06-19 00:18:00,75.6,17.1,29.72,NW,313,5.0,8.0,11,0.00,,,0.00,WUHU216DAVISVP2,2013-06-19 07:18:00,
2013-06-19 00:23:00,75.6,17.1,29.72,NW,312,5.0,9.0,11,0.00,,,0.00,WUHU216DAVISVP2,2013-06-19 07:23:00,
2013-06-19 00:28:00,75.8,17.3,29.72,NW,309,6.0,9.0,11,0.00,,,0.00,WUHU216DAVISVP2,2013-06-19 07:28:00,
2013-06-19 00:33:00,76.0,19.5,29.72,NW,311,6.0,8.0,12,0.00,,,0.00,WUHU216DAVISVP2,2013-06-19 07:33:00,
2013-06-19 00:38:00,76.2,19.7,29.72,NW,310,6.0,9.0,12,0.00,,,0.00,WUHU216DAVISVP2,2013-06-19 07:38:00,
2013-06-19 00:43:00,76.1,19.6,29.72,NW,312,5.0,9.0,12,0.00,,,0.00,WUHU216DAVISVP2,2013-06-19 07:43:00,
2013-06-19 00:48:00,75.9,19.4,29.72,NW,311,6.0,11.0,12,0.00,,,0.00,WUHU216DAVISVP2,2013-06-19 07:48:00,
2013-06-19 00:53:00,75.5,19.1,29.72,NW,317,6.0,9.0,12,0.00,,,0.00,WUHU216DAVISVP2,2013-06-19 07:53:00,
2013-06-19 00:58:00,75.2,18.9,29.72,NW,310,6.0,9.0,12,0.00,,,0.00,WUHU216DAVISVP2,2013-06-19 07:58:00,
2013-06-19 01:03:00,75.1,20.7,29.72,NW,307,6.0,9.0,13,0.00,,,0.00,WUHU216DAVISVP2,2013-06-19 08:03:00,
2013-06-19 01:08:00,75.2,20.8,29.71,WNW,303,6.0,9.0,13,0.00,,,0.00,WUHU216DAVISVP2,2013-06-19 08:08:00,
2013-06-19 01:13:00,75.5,21.1,29.71,NW,306,7.0,10.0,13,0.00,,,0.00,WUHU216DAVISVP2,2013-06-19 08:13:00,
2013-06-19 01:19:00,75.4,21.0,29.71,NW,311,6.0,10.0,13,0.00,,,0.00,WUHU216DAVISVP2,2013-06-19 08:19:00,
2013-06-19 01:24:00,75.2,20.8,29.71,NW,315,6.0,10.0,13,0.00,,,0.00,WUHU216DAVISVP2,2013-06-19 08:24:00,
2013-06-19 01:29:00,75.1,20.7,29.70,NW,304,7.0,10.0,13,0.00,,,0.00,WUHU216DAVISVP2,2013-06-19 08:29:00,
2013-06-19 01:34:00,75.0,20.7,29.70,NW,306,7.0,10.0,13,0.00,,,0.00,WUHU216DAVISVP2,2013-06-19 08:34:00,
2013-06-19 01:39:00,74.9,20.6,29.70,NW,311,7.0,9.0,13,0.00,,,0.00,WUHU216DAVISVP2,2013-06-19 08:39:00,
2013-06-19 01:44:00,74.8,20.5,29.70,NW,306,7.0,11.0,13,0.00,,,0.00,WUHU216DAVISVP2,2013-06-19 08:44:00,
2013-06-19 01:49:00,74.8,20.5,29.70,NW,307,7.0,10.0,13,0.00,,,0.00,WUHU216DAVISVP2,2013-06-19 08:49:00,
2013-06-19 01:54:00,74.8,20.5,29.69,NW,311,7.0,12.0,13,0.00,,,0.00,WUHU216DAVISVP2,2013-06-19 08:54:00,
2013-06-19 01:59:00,74.6,20.4,29.69,NW,309,7.0,10.0,13,0.00,,,0.00,WUHU216DAVISVP2,2013-06-19 08:59:00,
2013-06-19 02:04:00,74.5,20.3,29.69,NW,312,6.0,9.0,13,0.00,,,0.00,WUHU216DAVISVP2,2013-06-19 09:04:00,
2013-06-19 02:09:00,74.3,20.1,29.69,NW,308,5.0,9.0,13,0.00,,,0.00,WUHU216DAVISVP2,2013-06-19 09:09:00,
2013-06-19 02:14:00,74.2,20.0,29.69,NW,312,5.0,8.0,13,0.00,,,0.00,WUHU216DAVISVP2,2013-06-19 09:14:00,
2013-06-19 02:19:00,73.9,21.6,29.69,NW,313,5.0,7.0,14,0.00,,,0.00,WUHU216DAVISVP2,2013-06-19 09:19:00,
2013-06-19 02:24:00,73.8,21.5,29.69,NW,315,5.0,9.0,14,0.00,,,0.00,WUHU216DAVISVP2,2013-06-19 09:24:00,
2013-06-19 02:30:00,73.7,21.4,29.69,NW,312,5.0,9.0,14,0.00,,,0.00,WUHU216DAVISVP2,2013-06-19 09:30:00,
2013-06-19 02:35:00,73.7,21.4,29.69,NW,308,5.0,8.0,14,0.00,,,0.00,WUHU216DAVISVP2,2013-06-19 09:35:00,
2013-06-19 02:40:00,73.5,21.3,29.69,NW,310,4.0,7.0,14,0.00,,,0.00,WUHU216DAVISVP2,2013-06-19 09:40:00,
2013-06-19 02:45:00,73.6,21.4,29.69,NW,308,5.0,8.0,14,0.00,,,0.00,WUHU216DAVISVP2,2013-06-19 09:45:00,
2013-06-19 02:50:00,73.7,21.4,29.70,WNW,302,4.0,7.0,14,0.00,,,0.00,WUHU216DAVISVP2,2013-06-19 09:50:00,
2013-06-19 02:55:00,73.6,21.4,29.70,NW,305,4.0,7.0,14,0.00,,,0.00,WUHU216DAVISVP2,2013-06-19 09:55:00,
2013-06-19 03:00:00,73.5,21.3,29.69,NW,309,5.0,8.0,14,0.00,,,0.00,WUHU216DAVISVP2,2013-06-19 10:00:00,
2013-06-19 03:05:00,73.5,21.3,29.70,NW,309,5.0,8.0,14,0.00,,,0.00,WUHU216DAVISVP2,2013-06-19 10:05:00,
2013-06-19 03:10:00,73.3,21.1,29.70,NW,308,4.0,6.0,14,0.00,,,0.00,WUHU216DAVISVP2,2013-06-19 10:10:00,
2013-06-19 03:15:00,73.2,21.0,29.70,NW,310,4.0,7.0,14,0.00,,,0.00,WUHU216DAVISVP2,2013-06-19 10:15:00,
2013-06-19 03:20:00,73.0,20.9,29.70,NW,311,4.0,6.0,14,0.00,,,0.00,WUHU216DAVISVP2,2013-06-19 10:20:00,
2013-06-19 03:26:00,72.9,20.8,29.70,NW,309,4.0,6.0,14,0.00,,,0.00,WUHU216DAVISVP2,2013-06-19 10:26:00,
2013-06-19 03:31:00,72.8,20.7,29.70,NW,310,4.0,6.0,14,0.00,,,0.00,WUHU216DAVISVP2,2013-06-19 10:31:00,
2013-06-19 03:36:00,72.8,20.7,29.70,NW,310,4.0,7.0,14,0.00,,,0.00,WUHU216DAVISVP2,2013-06-19 10:36:00,
2013-06-19 03:41:00,72.9,20.8,29.70,NW,308,4.0,6.0,14,0.00,,,0.00,WUHU216DAVISVP2,2013-06-19 10:41:00,
2013-06-19 03:46:00,72.7,20.6,29.70,NW,312,3.0,5.0,14,0.00,,,0.00,WUHU216DAVISVP2,2013-06-19 10:46:00,
2013-06-19 03:51:00,72.3,20.3,29.70,NW,316,2.0,6.0,14,0.00,,,0.00,WUHU216DAVISVP2,2013-06-19 10:51:00,
2013-06-19 03:56:00,72.3,20.3,29.70,NW,308,4.0,6.0,14,0.00,,,0.00,WUHU216DAVISVP2,2013-06-19 10:56:00,
2013-06-19 04:01:00,72.2,20.2,29.70,NW,311,3.0,6.0,14,0.00,,,0.00,WUHU216DAVISVP2,2013-06-19 11:01:00,
2013-06-19 04:06:00,72.0,20.1,29.70,NW,319,2.0,5.0,14,0.00,,,0.00,WUHU216DAVISVP2,2013-06-19 11:06:00,
2013-06-19 04:11:00,71.8,21.6,29.71,NW,313,3.0,6.0,15,0.00,,,0.00,WUHU216DAVISVP2,2013-06-19 11:11:00,
2013-06-19 04:17:00,71.7,21.5,29.71,NW,319,3.0,6.0,15,0.00,,,0.00,WUHU216DAVISVP2,2013-06-19 11:17:00,
2013-06-19 04:22:00,71.8,21.6,29.71,NW,315,3.0,6.0,15,0.00,,,0.00,WUHU216DAVISVP2,2013-06-19 11:22:00,
2013-06-19 04:27:00,72.1,20.2,29.71,NW,312,4.0,6.0,14,0.00,,,0.00,WUHU216DAVISVP2,2013-06-19 11:27:00,
2013-06-19 04:32:00,72.2,20.2,29.71,NW,309,4.0,7.0,14,0.00,,,0.00,WUHU216DAVISVP2,2013-06-19 11:32:00,
2013-06-19 04:37:00,72.2,21.9,29.71,NW,316,3.0,6.0,15,0.00,,,0.00,WUHU216DAVISVP2,2013-06-19 11:37:00,
2013-06-19 04:42:00,72.1,21.8,29.71,NW,321,4.0,8.0,15,0.00,,,0.00,WUHU216DAVISVP2,2013-06-19 11:42:00,
2013-06-19 04:47:00,71.9,21.7,29.71,NW,322,3.0,4.0,15,0.00,,,0.00,WUHU216DAVISVP2,2013-06-19 11:47:00,
2013-06-19 04:52:00,71.4,21.3,29.71,NW,322,3.0,6.0,15,0.00,,,0.00,WUHU216DAVISVP2,2013-06-19 11:52:00,
2013-06-19 04:57:00,71.2,21.1,29.71,NW,321,3.0,5.0,15,0.00,,,0.00,WUHU216DAVISVP2,2013-06-19 11:57:00,
2013-06-19 05:02:00,71.0,22.5,29.71,NW,322,3.0,5.0,16,0.00,,,0.00,WUHU216DAVISVP2,2013-06-19 12:02:00,
2013-06-19 05:07:00,70.8,22.3,29.72,NW,318,2.0,4.0,16,0.00,,,0.00,WUHU216DAVISVP2,2013-06-19 12:07:00,
2013-06-19 05:13:00,70.6,22.2,29.72,NW,315,2.0,4.0,16,0.00,,,0.00,WUHU216DAVISVP2,2013-06-19 12:13:00,
2013-06-19 05:18:00,70.6,22.2,29.72,NW,317,2.0,7.0,16,0.00,,,0.00,WUHU216DAVISVP2,2013-06-19 12:18:00,
2013-06-19 05:23:00,70.8,22.3,29.72,NW,318,3.0,5.0,16,0.00,,,0.00,WUHU216DAVISVP2,2013-06-19 12:23:00,
2013-06-19 05:28:00,71.0,22.5,29.72,NW,315,2.0,4.0,16,0.00,,,0.00,WUHU216DAVISVP2,2013-06-19 12:28:00,
2013-06-19 05:33:00,71.4,22.8,29.72,NW,326,3.0,6.0,16,0.00,,,0.00,WUHU216DAVISVP2,2013-06-19 12:33:00,
2013-06-19 05:38:00,71.7,23.0,29.72,NW,322,4.0,7.0,16,0.00,,,0.00,WUHU216DAVISVP2,2013-06-19 12:38:00,
2013-06-19 05:43:00,72.0,23.3,29.72,NNW,330,4.0,6.0,16,0.00,,,0.00,WUHU216DAVISVP2,2013-06-19 12:43:00,
2013-06-19 05:48:00,72.4,23.6,29.73,NW,316,3.0,6.0,16,0.00,,,0.00,WUHU216DAVISVP2,2013-06-19 12:48:00,
2013-06-19 05:53:00,72.9,24.0,29.73,NW,318,3.0,5.0,16,0.00,,,0.00,WUHU216DAVISVP2,2013-06-19 12:53:00,
2013-06-19 05:58:00,73.6,24.6,29.73,NW,320,3.0,6.0,16,0.00,,,0.00,WUHU216DAVISVP2,2013-06-19 12:58:00,
2013-06-19 06:03:00,74.1,25.0,29.73,NNW,335,2.0,3.0,16,0.00,,,0.00,WUHU216DAVISVP2,2013-06-19 13:03:00,
2013-06-19 06:08:00,74.6,25.4,29.73,NNW,333,1.0,3.0,16,0.00,,,0.00,WUHU216DAVISVP2,2013-06-19 13:08:00,
2013-06-19 06:13:00,75.0,25.7,29.74,NW,325,2.0,3.0,16,0.00,,,0.00,WUHU216DAVISVP2,2013-06-19 13:13:00,
2013-06-19 06:18:00,75.5,26.1,29.73,NNW,329,2.0,3.0,16,0.00,,,0.00,WUHU216DAVISVP2,2013-06-19 13:18:00,
2013-06-19 06:24:00,75.9,26.4,29.73,NNW,329,1.0,2.0,16,0.00,,,0.00,WUHU216DAVISVP2,2013-06-19 13:24:00,
2013-06-19 06:29:00,76.5,26.9,29.73,NW,311,2.0,4.0,16,0.00,,,0.00,WUHU216DAVISVP2,2013-06-19 13:29:00,
2013-06-19 06:34:00,77.0,27.3,29.73,WNW,300,1.0,2.0,16,0.00,,,0.00,WUHU216DAVISVP2,2013-06-19 13:34:00,
2013-06-19 06:39:00,77.4,27.6,29.73,WNW,289,1.0,3.0,16,0.00,,,0.00,WUHU216DAVISVP2,2013-06-19 13:39:00,
2013-06-19 06:44:00,77.8,28.0,29.73,WNW,282,1.0,2.0,16,0.00,,,0.00,WUHU216DAVISVP2,2013-06-19 13:44:00,
2013-06-19 06:49:00,78.1,28.2,29.73,West,281,1.0,3.0,16,0.00,,,0.00,WUHU216DAVISVP2,2013-06-19 13:49:00,
2013-06-19 06:54:00,78.4,28.4,29.73,West,276,2.0,4.0,16,0.00,,,0.00,WUHU216DAVISVP2,2013-06-19 13:54:00,
2013-06-19 06:59:00,78.5,28.5,29.74,WSW,253,2.0,4.0,16,0.00,,,0.00,WUHU216DAVISVP2,2013-06-19 13:59:00,
2013-06-19 07:04:00,78.6,30.1,29.74,WSW,240,1.0,3.0,17,0.00,,,0.00,WUHU216DAVISVP2,2013-06-19 14:04:00,
2013-06-19 07:09:00,78.8,30.3,29.74,SW,230,2.0,4.0,17,0.00,,,0.00,WUHU216DAVISVP2,2013-06-19 14:09:00,
2013-06-19 07:14:00,79.0,30.4,29.73,SSW,199,2.0,4.0,17,0.00,,,0.00,WUHU216DAVISVP2,2013-06-19 14:14:00,
2013-06-19 07:19:00,79.3,30.7,29.74,SW,225,3.0,6.0,17,0.00,,,0.00,WUHU216DAVISVP2,2013-06-19 14:19:00,
2013-06-19 07:24:00,79.5,30.8,29.74,SW,226,3.0,5.0,17,0.00,,,0.00,WUHU216DAVISVP2,2013-06-19 14:24:00,
2013-06-19 07:30:00,79.8,31.1,29.74,SSW,208,3.0,5.0,17,0.00,,,0.00,WUHU216DAVISVP2,2013-06-19 14:30:00,
2013-06-19 07:35:00,79.7,31.0,29.74,SW,215,3.0,6.0,17,0.00,,,0.00,WUHU216DAVISVP2,2013-06-19 14:35:00,
2013-06-19 07:40:00,79.9,32.6,29.74,SSW,208,3.0,5.0,18,0.00,,,0.00,WUHU216DAVISVP2,2013-06-19 14:40:00,
2013-06-19 07:45:00,80.2,32.8,29.74,SSW,213,4.0,7.0,18,0.00,,,0.00,WUHU216DAVISVP2,2013-06-19 14:45:00,
2013-06-19 07:50:00,80.3,32.9,29.74,SW,214,4.0,7.0,18,0.00,,,0.00,WUHU216DAVISVP2,2013-06-19 14:50:00,
2013-06-19 07:55:00,80.5,33.1,29.74,SW,215,4.0,7.0,18,0.00,,,0.00,WUHU216DAVISVP2,2013-06-19 14:55:00,
2013-06-19 08:00:00,80.8,33.3,29.74,SSW,201,4.0,6.0,18,0.00,,,0.00,WUHU216DAVISVP2,2013-06-19 15:00:00,
2013-06-19 08:05:00,81.1,33.6,29.75,SSW,200,4.0,7.0,18,0.00,,,0.00,WUHU216DAVISVP2,2013-06-19 15:05:00,
2013-06-19 08:10:00,81.5,33.9,29.74,SW,215,5.0,7.0,18,0.00,,,0.00,WUHU216DAVISVP2,2013-06-19 15:10:00,
2013-06-19 08:15:00,81.8,31.2,29.74,SW,228,4.0,7.0,16,0.00,,,0.00,WUHU216DAVISVP2,2013-06-19 15:15:00,
2013-06-19 08:21:00,82.2,31.5,29.74,SSW,211,4.0,8.0,16,0.00,,,0.00,WUHU216DAVISVP2,2013-06-19 15:21:00,
2013-06-19 08:26:00,82.7,34.9,29.74,SW,219,4.0,8.0,18,0.00,,,0.00,WUHU216DAVISVP2,2013-06-19 15:26:00,
2013-06-19 08:31:00,83.0,35.1,29.74,South,190,5.0,9.0,18,0.00,,,0.00,WUHU216DAVISVP2,2013-06-19 15:31:00,
2013-06-19 08:36:00,83.1,35.2,29.74,SSW,210,4.0,7.0,18,0.00,,,0.00,WUHU216DAVISVP2,2013-06-19 15:36:00,
2013-06-19 08:41:00,83.0,35.1,29.74,SW,230,5.0,10.0,18,0.00,,,0.00,WUHU216DAVISVP2,2013-06-19 15:41:00,
2013-06-19 08:46:00,83.0,33.7,29.74,SW,229,5.0,8.0,17,0.00,,,0.00,WUHU216DAVISVP2,2013-06-19 15:46:00,
2013-06-19 08:51:00,82.9,28.7,29.74,SSE,156,4.0,8.0,14,0.00,,,0.00,WUHU216DAVISVP2,2013-06-19 15:51:00,
2013-06-19 08:56:00,83.0,28.8,29.74,SE,139,4.0,8.0,14,0.00,,,0.00,WUHU216DAVISVP2,2013-06-19 15:56:00,
2013-06-19 09:01:00,82.8,30.4,29.74,SE,141,7.0,12.0,15,0.00,,,0.00,WUHU216DAVISVP2,2013-06-19 16:01:00,
2013-06-19 09:06:00,83.0,28.8,29.73,SE,134,5.0,9.0,14,0.00,,,0.00,WUHU216DAVISVP2,2013-06-19 16:06:00,
2013-06-19 09:11:00,83.4,30.8,29.73,SE,143,4.0,10.0,15,0.00,,,0.00,WUHU216DAVISVP2,2013-06-19 16:11:00,
2013-06-19 09:16:00,83.5,30.9,29.73,SE,132,7.0,13.0,15,0.00,,,0.00,WUHU216DAVISVP2,2013-06-19 16:16:00,
2013-06-19 09:21:00,84.0,31.3,29.73,ESE,120,6.0,11.0,15,0.00,,,0.00,WUHU216DAVISVP2,2013-06-19 16:21:00,
2013-06-19 09:26:00,84.3,31.6,29.73,SE,135,6.0,9.0,15,0.00,,,0.00,WUHU216DAVISVP2,2013-06-19 16:26:00,
2013-06-19 09:31:00,84.3,31.6,29.73,SE,129,7.0,10.0,15,0.00,,,0.00,WUHU216DAVISVP2,2013-06-19 16:31:00,
2013-06-19 09:36:00,84.2,31.5,29.73,SE,130,6.0,11.0,15,0.00,,,0.00,WUHU216DAVISVP2,2013-06-19 16:36:00,
2013-06-19 09:42:00,84.3,31.6,29.73,ESE,122,5.0,9.0,15,0.00,,,0.00,WUHU216DAVISVP2,2013-06-19 16:42:00,
2013-06-19 09:47:00,84.5,31.7,29.73,SE,127,5.0,10.0,15,0.00,,,0.00,WUHU216DAVISVP2,2013-06-19 16:47:00,
2013-06-19 09:52:00,84.6,31.8,29.73,SE,138,5.0,12.0,15,0.00,,,0.00,WUHU216DAVISVP2,2013-06-19 16:52:00,
2013-06-19 09:57:00,85.6,32.6,29.73,SE,142,6.0,11.0,15,0.00,,,0.00,WUHU216DAVISVP2,2013-06-19 16:57:00,
2013-06-19 10:02:00,86.2,33.1,29.73,SSE,164,4.0,8.0,15,0.00,,,0.00,WUHU216DAVISVP2,2013-06-19 17:02:00,
2013-06-19 10:07:00,86.3,33.2,29.72,SSE,152,6.0,10.0,15,0.00,,,0.00,WUHU216DAVISVP2,2013-06-19 17:07:00,
2013-06-19 10:12:00,86.8,31.8,29.72,SE,144,7.0,12.0,14,0.00,,,0.00,WUHU216DAVISVP2,2013-06-19 17:12:00,
2013-06-19 10:17:00,86.7,31.7,29.72,SSE,158,5.0,9.0,14,0.00,,,0.00,WUHU216DAVISVP2,2013-06-19 17:17:00,
2013-06-19 10:22:00,86.8,31.8,29.72,SE,145,3.0,8.0,14,0.00,,,0.00,WUHU216DAVISVP2,2013-06-19 17:22:00,
2013-06-19 10:27:00,87.2,32.1,29.72,SSW,193,4.0,11.0,14,0.00,,,0.00,WUHU216DAVISVP2,2013-06-19 17:27:00,
2013-06-19 10:32:00,87.5,32.4,29.72,SE,134,7.0,12.0,14,0.00,,,0.00,WUHU216DAVISVP2,2013-06-19 17:32:00,
2013-06-19 10:37:00,87.6,32.4,29.72,South,182,3.0,6.0,14,0.00,,,0.00,WUHU216DAVISVP2,2013-06-19 17:37:00,
2013-06-19 10:42:00,88.2,32.9,29.72,SW,214,3.0,7.0,14,0.00,,,0.00,WUHU216DAVISVP2,2013-06-19 17:42:00,
2013-06-19 10:47:00,89.2,33.7,29.71,SSW,201,8.0,13.0,14,0.00,,,0.00,WUHU216DAVISVP2,2013-06-19 17:47:00,
2013-06-19 10:52:00,89.6,34.0,29.71,SSW,199,8.0,14.0,14,0.00,,,0.00,WUHU216DAVISVP2,2013-06-19 17:52:00,
2013-06-19 10:57:00,90.0,34.3,29.71,SW,218,9.0,16.0,14,0.00,,,0.00,WUHU216DAVISVP2,2013-06-19 17:57:00,
2013-06-19 11:02:00,90.3,34.6,29.71,SSW,194,9.0,17.0,14,0.00,,,0.00,WUHU216DAVISVP2,2013-06-19 18:02:00,
2013-06-19 11:08:00,90.2,34.5,29.71,SSW,211,10.0,15.0,14,0.00,,,0.00,WUHU216DAVISVP2,2013-06-19 18:08:00,
2013-06-19 11:13:00,90.8,35.0,29.71,SSW,204,8.0,17.0,14,0.00,,,0.00,WUHU216DAVISVP2,2013-06-19 18:13:00,
2013-06-19 11:18:00,91.0,35.1,29.71,SSW,196,8.0,17.0,14,0.00,,,0.00,WUHU216DAVISVP2,2013-06-19 18:18:00,
2013-06-19 11:23:00,91.1,35.2,29.71,SSW,210,10.0,18.0,14,0.00,,,0.00,WUHU216DAVISVP2,2013-06-19 18:23:00,
2013-06-19 11:28:00,91.0,33.2,29.71,SW,231,11.0,17.0,13,0.00,,,0.00,WUHU216DAVISVP2,2013-06-19 18:28:00,
2013-06-19 11:33:00,91.3,35.3,29.71,SSW,211,8.0,16.0,14,0.00,,,0.00,WUHU216DAVISVP2,2013-06-19 18:33:00,
2013-06-19 11:38:00,91.9,35.8,29.71,SSW,198,10.0,15.0,14,0.00,,,0.00,WUHU216DAVISVP2,2013-06-19 18:38:00,
2013-06-19 11:43:00,92.1,34.1,29.70,SSW,194,9.0,17.0,13,0.00,,,0.00,WUHU216DAVISVP2,2013-06-19 18:43:00,
2013-06-19 11:48:00,91.9,33.9,29.70,SW,221,10.0,18.0,13,0.00,,,0.00,WUHU216DAVISVP2,2013-06-19 18:48:00,
2013-06-19 11:53:00,91.6,33.7,29.70,SSW,213,13.0,20.0,13,0.00,,,0.00,WUHU216DAVISVP2,2013-06-19 18:53:00,
2013-06-19 11:58:00,91.6,35.6,29.69,SSW,205,9.0,18.0,14,0.00,,,0.00,WUHU216DAVISVP2,2013-06-19 18:58:00,
2013-06-19 12:03:00,92.2,34.1,29.70,SSW,195,13.0,26.0,13,0.00,,,0.00,WUHU216DAVISVP2,2013-06-19 19:03:00,
2013-06-19 12:08:00,92.8,34.6,29.69,SSW,211,12.0,24.0,13,0.00,,,0.00,WUHU216DAVISVP2,2013-06-19 19:08:00,
2013-06-19 12:13:00,92.7,34.5,29.69,SSW,204,10.0,17.0,13,0.00,,,0.00,WUHU216DAVISVP2,2013-06-19 19:13:00,
2013-06-19 12:18:00,93.2,34.9,29.69,SW,220,10.0,19.0,13,0.00,,,0.00,WUHU216DAVISVP2,2013-06-19 19:18:00,
2013-06-19 12:23:00,93.1,34.8,29.69,SW,219,8.0,17.0,13,0.00,,,0.00,WUHU216DAVISVP2,2013-06-19 19:23:00,
2013-06-19 12:28:00,92.5,34.4,29.69,SSW,198,12.0,19.0,13,0.00,,,0.00,WUHU216DAVISVP2,2013-06-19 19:28:00,
2013-06-19 12:33:00,93.3,35.0,29.68,SW,218,10.0,18.0,13,0.00,,,0.00,WUHU216DAVISVP2,2013-06-19 19:33:00,
2013-06-19 12:39:00,93.3,35.0,29.68,SSW,192,10.0,18.0,13,0.00,,,0.00,WUHU216DAVISVP2,2013-06-19 19:39:00,
2013-06-19 12:44:00,93.4,35.1,29.68,SSW,197,13.0,23.0,13,0.00,,,0.00,WUHU216DAVISVP2,2013-06-19 19:44:00,
2013-06-19 12:49:00,93.2,34.9,29.68,SSW,192,15.0,26.0,13,0.00,,,0.00,WUHU216DAVISVP2,2013-06-19 19:49:00,
2013-06-19 12:54:00,93.3,35.0,29.68,SSW,212,12.0,18.0,13,0.00,,,0.00,WUHU216DAVISVP2,2013-06-19 19:54:00,
2013-06-19 12:59:00,93.5,33.1,29.68,SSW,206,13.0,21.0,12,0.00,,,0.00,WUHU216DAVISVP2,2013-06-19 19:59:00,
2013-06-19 13:04:00,93.7,35.3,29.67,SSW,206,10.0,22.0,13,0.00,,,0.00,WUHU216DAVISVP2,2013-06-19 20:04:00,
2013-06-19 13:09:00,94.1,33.6,29.67,SSW,212,11.0,18.0,12,0.00,,,0.00,WUHU216DAVISVP2,2013-06-19 20:09:00,
2013-06-19 13:14:00,93.9,33.4,29.67,SSW,207,12.0,20.0,12,0.00,,,0.00,WUHU216DAVISVP2,2013-06-19 20:14:00,
2013-06-19 13:19:00,94.1,33.6,29.67,SSW,198,9.0,19.0,12,0.00,,,0.00,WUHU216DAVISVP2,2013-06-19 20:19:00,
2013-06-19 13:24:00,94.5,31.6,29.67,SW,231,12.0,19.0,11,0.00,,,0.00,WUHU216DAVISVP2,2013-06-19 20:24:00,
2013-06-19 13:29:00,94.8,34.1,29.67,SSW,205,12.0,18.0,12,0.00,,,0.00,WUHU216DAVISVP2,2013-06-19 20:29:00,
2013-06-19 13:34:00,94.7,34.0,29.67,SSW,199,9.0,17.0,12,0.00,,,0.00,WUHU216DAVISVP2,2013-06-19 20:34:00,
2013-06-19 13:39:00,95.2,34.4,29.67,SW,217,8.0,15.0,12,0.00,,,0.00,WUHU216DAVISVP2,2013-06-19 20:39:00,
2013-06-19 13:44:00,95.7,32.5,29.66,SW,216,12.0,27.0,11,0.00,,,0.00,WUHU216DAVISVP2,2013-06-19 20:44:00,
2013-06-19 13:49:00,95.7,30.1,29.66,SW,221,12.0,25.0,10,0.00,,,0.00,WUHU216DAVISVP2,2013-06-19 20:49:00,
2013-06-19 13:54:00,95.8,30.2,29.67,SW,230,13.0,18.0,10,0.00,,,0.00,WUHU216DAVISVP2,2013-06-19 20:54:00,
2013-06-19 13:59:00,95.3,27.2,29.66,SW,217,11.0,20.0,9,0.00,,,0.00,WUHU216DAVISVP2,2013-06-19 20:59:00,
2013-06-19 14:05:00,95.4,29.9,29.66,SSW,202,13.0,18.0,10,0.00,,,0.00,WUHU216DAVISVP2,2013-06-19 21:05:00,
2013-06-19 14:10:00,95.4,29.9,29.66,SW,218,14.0,21.0,10,0.00,,,0.00,WUHU216DAVISVP2,2013-06-19 21:10:00,
2013-06-19 14:15:00,95.5,30.0,29.67,SSW,200,14.0,25.0,10,0.00,,,0.00,WUHU216DAVISVP2,2013-06-19 21:15:00,
2013-06-19 14:20:00,95.3,29.8,29.67,SSW,199,11.0,18.0,10,0.00,,,0.00,WUHU216DAVISVP2,2013-06-19 21:20:00,
2013-06-19 14:25:00,95.3,29.8,29.66,SSW,198,11.0,18.0,10,0.00,,,0.00,WUHU216DAVISVP2,2013-06-19 21:25:00,
2013-06-19 14:30:00,95.6,27.4,29.66,SSW,193,12.0,18.0,9,0.00,,,0.00,WUHU216DAVISVP2,2013-06-19 21:30:00,
2013-06-19 14:35:00,95.3,27.2,29.65,South,191,12.0,18.0,9,0.00,,,0.00,WUHU216DAVISVP2,2013-06-19 21:35:00,
2013-06-19 14:40:00,95.6,27.4,29.65,SSW,196,11.0,22.0,9,0.00,,,0.00,WUHU216DAVISVP2,2013-06-19 21:40:00,
2013-06-19 14:45:00,94.9,29.5,29.65,SW,221,12.0,19.0,10,0.00,,,0.00,WUHU216DAVISVP2,2013-06-19 21:45:00,
2013-06-19 14:50:00,95.2,29.7,29.65,SW,234,10.0,18.0,10,0.00,,,0.00,WUHU216DAVISVP2,2013-06-19 21:50:00,
2013-06-19 14:55:00,95.2,29.7,29.65,SSW,199,10.0,17.0,10,0.00,,,0.00,WUHU216DAVISVP2,2013-06-19 21:55:00,
2013-06-19 15:00:00,95.6,30.0,29.65,South,187,8.0,16.0,10,0.00,,,0.00,WUHU216DAVISVP2,2013-06-19 22:00:00,
2013-06-19 15:05:00,95.7,30.1,29.65,South,183,12.0,20.0,10,0.00,,,0.00,WUHU216DAVISVP2,2013-06-19 22:05:00,
2013-06-19 15:10:00,95.9,30.3,29.64,South,188,11.0,17.0,10,0.00,,,0.00,WUHU216DAVISVP2,2013-06-19 22:10:00,
2013-06-19 15:15:00,95.1,29.7,29.64,SW,221,9.0,18.0,10,0.00,,,0.00,WUHU216DAVISVP2,2013-06-19 22:15:00,
2013-06-19 15:21:00,95.3,29.8,29.64,South,190,12.0,23.0,10,0.00,,,0.00,WUHU216DAVISVP2,2013-06-19 22:21:00,
2013-06-19 15:26:00,95.4,29.9,29.64,SSW,197,14.0,23.0,10,0.00,,,0.00,WUHU216DAVISVP2,2013-06-19 22:26:00,
2013-06-19 15:31:00,95.6,30.0,29.64,SSW,211,11.0,18.0,10,0.00,,,0.00,WUHU216DAVISVP2,2013-06-19 22:31:00,
2013-06-19 15:36:00,95.1,29.7,29.64,SSW,193,9.0,16.0,10,0.00,,,0.00,WUHU216DAVISVP2,2013-06-19 22:36:00,
2013-06-19 15:41:00,94.8,29.4,29.64,SSW,206,13.0,22.0,10,0.00,,,0.00,WUHU216DAVISVP2,2013-06-19 22:41:00,
2013-06-19 15:46:00,94.7,26.7,29.64,SSW,195,13.0,25.0,9,0.00,,,0.00,WUHU216DAVISVP2,2013-06-19 22:46:00,
2013-06-19 15:51:00,94.7,26.7,29.64,South,183,12.0,20.0,9,0.00,,,0.00,WUHU216DAVISVP2,2013-06-19 22:51:00,
2013-06-19 15:56:00,94.6,26.7,29.64,South,180,10.0,19.0,9,0.00,,,0.00,WUHU216DAVISVP2,2013-06-19 22:56:00,
2013-06-19 16:01:00,94.4,29.1,29.63,SSW,195,10.0,18.0,10,0.00,,,0.00,WUHU216DAVISVP2,2013-06-19 23:01:00,
2013-06-19 16:06:00,94.9,29.5,29.63,SSW,200,8.0,15.0,10,0.00,,,0.00,WUHU216DAVISVP2,2013-06-19 23:06:00,
2013-06-19 16:11:00,95.1,27.0,29.64,SSW,213,11.0,21.0,9,0.00,,,0.00,WUHU216DAVISVP2,2013-06-19 23:11:00,
2013-06-19 16:16:00,94.8,26.8,29.64,SSW,205,13.0,18.0,9,0.00,,,0.00,WUHU216DAVISVP2,2013-06-19 23:16:00,
2013-06-19 16:21:00,94.4,26.5,29.64,SW,215,12.0,19.0,9,0.00,,,0.00,WUHU216DAVISVP2,2013-06-19 23:21:00,
2013-06-19 16:26:00,94.1,23.4,29.64,SSW,208,11.0,22.0,8,0.00,,,0.00,WUHU216DAVISVP2,2013-06-19 23:26:00,
2013-06-19 16:32:00,94.6,23.8,29.63,SW,229,8.0,16.0,8,0.00,,,0.00,WUHU216DAVISVP2,2013-06-19 23:32:00,
2013-06-19 16:37:00,94.1,23.4,29.63,SSW,202,12.0,21.0,8,0.00,,,0.00,WUHU216DAVISVP2,2013-06-19 23:37:00,
2013-06-19 16:42:00,94.0,23.4,29.63,SSW,209,10.0,19.0,8,0.00,,,0.00,WUHU216DAVISVP2,2013-06-19 23:42:00,
2013-06-19 16:47:00,93.8,23.2,29.64,SW,214,12.0,22.0,8,0.00,,,0.00,WUHU216DAVISVP2,2013-06-19 23:47:00,
2013-06-19 16:52:00,93.4,22.9,29.64,WSW,250,11.0,21.0,8,0.00,,,0.00,WUHU216DAVISVP2,2013-06-19 23:52:00,
2013-06-19 16:57:00,93.5,23.0,29.64,SSW,213,9.0,18.0,8,0.00,,,0.00,WUHU216DAVISVP2,2013-06-19 23:57:00,
2013-06-19 17:02:00,93.7,23.2,29.64,SW,215,8.0,22.0,8,0.00,,,0.00,WUHU216DAVISVP2,2013-06-20 00:02:00,
2013-06-19 17:07:00,93.5,23.0,29.64,WSW,238,10.0,18.0,8,0.00,,,0.00,WUHU216DAVISVP2,2013-06-20 00:07:00,
2013-06-19 17:12:00,93.3,22.9,29.64,WSW,249,9.0,15.0,8,0.00,,,0.00,WUHU216DAVISVP2,2013-06-20 00:12:00,
2013-06-19 17:17:00,92.8,19.4,29.64,WSW,251,12.0,23.0,7,0.00,,,0.00,WUHU216DAVISVP2,2013-06-20 00:17:00,
2013-06-19 17:22:00,92.8,22.5,29.64,WSW,247,10.0,17.0,8,0.00,,,0.00,WUHU216DAVISVP2,2013-06-20 00:22:00,
2013-06-19 17:27:00,92.6,22.3,29.64,WSW,253,9.0,19.0,8,0.00,,,0.00,WUHU216DAVISVP2,2013-06-20 00:27:00,
2013-06-19 17:32:00,92.4,19.1,29.64,WSW,251,10.0,18.0,7,0.00,,,0.00,WUHU216DAVISVP2,2013-06-20 00:32:00,
2013-06-19 17:37:00,91.9,21.8,29.65,WSW,255,11.0,17.0,8,0.00,,,0.00,WUHU216DAVISVP2,2013-06-20 00:37:00,
2013-06-19 17:42:00,91.7,21.7,29.64,WSW,254,11.0,19.0,8,0.00,,,0.00,WUHU216DAVISVP2,2013-06-20 00:42:00,
2013-06-19 17:47:00,91.7,21.7,29.65,WSW,238,8.0,16.0,8,0.00,,,0.00,WUHU216DAVISVP2,2013-06-20 00:47:00,
2013-06-19 17:52:00,91.7,21.7,29.65,SW,234,8.0,13.0,8,0.00,,,0.00,WUHU216DAVISVP2,2013-06-20 00:52:00,
2013-06-19 17:57:00,91.4,18.4,29.65,WSW,253,10.0,16.0,7,0.00,,,0.00,WUHU216DAVISVP2,2013-06-20 00:57:00,
2013-06-19 18:03:00,91.0,21.2,29.65,WSW,245,10.0,16.0,8,0.00,,,0.00,WUHU216DAVISVP2,2013-06-20 01:03:00,
2013-06-19 18:08:00,90.7,17.9,29.65,WSW,239,9.0,16.0,7,0.00,,,0.00,WUHU216DAVISVP2,2013-06-20 01:08:00,
2013-06-19 18:13:00,90.3,17.6,29.66,SW,225,10.0,18.0,7,0.00,,,0.00,WUHU216DAVISVP2,2013-06-20 01:13:00,
2013-06-19 18:18:00,90.0,17.4,29.66,SW,229,10.0,20.0,7,0.00,,,0.00,WUHU216DAVISVP2,2013-06-20 01:18:00,
2013-06-19 18:23:00,90.0,17.4,29.66,SW,234,7.0,13.0,7,0.00,,,0.00,WUHU216DAVISVP2,2013-06-20 01:23:00,
2013-06-19 18:28:00,89.8,17.2,29.66,SW,235,8.0,17.0,7,0.00,,,0.00,WUHU216DAVISVP2,2013-06-20 01:28:00,
2013-06-19 18:33:00,89.6,17.1,29.66,SW,223,8.0,13.0,7,0.00,,,0.00,WUHU216DAVISVP2,2013-06-20 01:33:00,
2013-06-19 18:38:00,89.2,16.8,29.66,SW,228,8.0,14.0,7,0.00,,,0.00,WUHU216DAVISVP2,2013-06-20 01:38:00,
2013-06-19 18:43:00,88.9,16.6,29.66,SW,228,9.0,14.0,7,0.00,,,0.00,WUHU216DAVISVP2,2013-06-20 01:43:00,
2013-06-19 18:48:00,88.6,16.3,29.66,SW,229,7.0,15.0,7,0.00,,,0.00,WUHU216DAVISVP2,2013-06-20 01:48:00,
2013-06-19 18:53:00,88.0,15.9,29.67,SW,233,7.0,14.0,7,0.00,,,0.00,WUHU216DAVISVP2,2013-06-20 01:53:00,
2013-06-19 18:58:00,87.4,15.5,29.67,SW,232,6.0,11.0,7,0.00,,,0.00,WUHU216DAVISVP2,2013-06-20 01:58:00,
2013-06-19 19:03:00,87.0,15.2,29.67,SW,229,7.0,12.0,7,0.00,,,0.00,WUHU216DAVISVP2,2013-06-20 02:03:00,
2013-06-19 19:08:00,86.6,14.9,29.67,SW,231,5.0,12.0,7,0.00,,,0.00,WUHU216DAVISVP2,2013-06-20 02:08:00,
2013-06-19 19:13:00,86.1,14.5,29.67,SW,229,5.0,8.0,7,0.00,,,0.00,WUHU216DAVISVP2,2013-06-20 02:13:00,
2013-06-19 19:18:00,85.7,17.3,29.67,SW,228,6.0,11.0,8,0.00,,,0.00,WUHU216DAVISVP2,2013-06-20 02:18:00,
2013-06-19 19:23:00,85.3,17.0,29.67,SW,233,5.0,9.0,8,0.00,,,0.00,WUHU216DAVISVP2,2013-06-20 02:23:00,
2013-06-19 19:28:00,85.0,16.7,29.67,SW,227,5.0,9.0,8,0.00,,,0.00,WUHU216DAVISVP2,2013-06-20 02:28:00,
2013-06-19 19:34:00,84.5,16.4,29.67,SW,225,2.0,5.0,8,0.00,,,0.00,WUHU216DAVISVP2,2013-06-20 02:34:00,
2013-06-19 19:39:00,83.9,15.9,29.67,SW,233,4.0,8.0,8,0.00,,,0.00,WUHU216DAVISVP2,2013-06-20 02:39:00,
2013-06-19 19:44:00,83.8,15.8,29.67,WSW,241,5.0,9.0,8,0.00,,,0.00,WUHU216DAVISVP2,2013-06-20 02:44:00,
2013-06-19 19:49:00,83.8,15.8,29.67,SW,232,5.0,9.0,8,0.00,,,0.00,WUHU216DAVISVP2,2013-06-20 02:49:00,
2013-06-19 19:54:00,83.3,15.5,29.68,SW,226,4.0,8.0,8,0.00,,,0.00,WUHU216DAVISVP2,2013-06-20 02:54:00,
2013-06-19 19:59:00,82.9,15.2,29.68,SW,232,4.0,7.0,8,0.00,,,0.00,WUHU216DAVISVP2,2013-06-20 02:59:00,
2013-06-19 20:04:00,82.2,14.7,29.68,SW,236,2.0,4.0,8,0.00,,,0.00,WUHU216DAVISVP2,2013-06-20 03:04:00,
2013-06-19 20:09:00,81.4,16.8,29.68,SW,236,2.0,4.0,9,0.00,,,0.00,WUHU216DAVISVP2,2013-06-20 03:09:00,
2013-06-19 20:14:00,80.8,16.3,29.68,WSW,237,3.0,6.0,9,0.00,,,0.00,WUHU216DAVISVP2,2013-06-20 03:14:00,
2013-06-19 20:19:00,80.5,16.1,29.68,WSW,246,2.0,5.0,9,0.00,,,0.00,WUHU216DAVISVP2,2013-06-20 03:19:00,
2013-06-19 20:24:00,79.8,15.6,29.68,WSW,243,3.0,6.0,9,0.00,,,0.00,WUHU216DAVISVP2,2013-06-20 03:24:00,
2013-06-19 20:29:00,79.9,15.7,29.68,WSW,243,4.0,7.0,9,0.00,,,0.00,WUHU216DAVISVP2,2013-06-20 03:29:00,
2013-06-19 20:34:00,79.7,15.5,29.69,WSW,242,3.0,5.0,9,0.00,,,0.00,WUHU216DAVISVP2,2013-06-20 03:34:00,
2013-06-19 20:39:00,79.6,15.4,29.69,WSW,246,4.0,7.0,9,0.00,,,0.00,WUHU216DAVISVP2,2013-06-20 03:39:00,
2013-06-19 20:44:00,79.4,15.3,29.69,WSW,246,2.0,5.0,9,0.00,,,0.00,WUHU216DAVISVP2,2013-06-20 03:44:00,
2013-06-19 20:49:00,79.1,15.1,29.69,SW,231,2.0,5.0,9,0.00,,,0.00,WUHU216DAVISVP2,2013-06-20 03:49:00,
2013-06-19 20:54:00,78.7,17.2,29.69,SW,232,2.0,4.0,10,0.00,,,0.00,WUHU216DAVISVP2,2013-06-20 03:54:00,
2013-06-19 20:59:00,78.1,16.8,29.69,SW,231,1.0,2.0,10,0.00,,,0.00,WUHU216DAVISVP2,2013-06-20 03:59:00,
2013-06-19 21:05:00,77.3,16.2,29.70,SW,232,1.0,1.0,10,0.00,,,0.00,WUHU216DAVISVP2,2013-06-20 04:05:00,
2013-06-19 21:10:00,76.5,15.6,29.70,WSW,237,1.0,2.0,10,0.00,,,0.00,WUHU216DAVISVP2,2013-06-20 04:10:00,
2013-06-19 21:15:00,75.9,17.4,29.70,WSW,243,1.0,1.0,11,0.00,,,0.00,WUHU216DAVISVP2,2013-06-20 04:15:00,
2013-06-19 21:20:00,75.7,17.2,29.70,WSW,242,1.0,3.0,11,0.00,,,0.00,WUHU216DAVISVP2,2013-06-20 04:20:00,
2013-06-19 21:25:00,75.5,17.1,29.71,WSW,241,2.0,4.0,11,0.00,,,0.00,WUHU216DAVISVP2,2013-06-20 04:25:00,
2013-06-19 21:30:00,75.3,16.9,29.71,WSW,253,1.0,3.0,11,0.00,,,0.00,WUHU216DAVISVP2,2013-06-20 04:30:00,
2013-06-19 21:35:00,75.3,16.9,29.71,North,0,0.0,0.0,11,0.00,,,0.00,WUHU216DAVISVP2,2013-06-20 04:35:00,
2013-06-19 21:40:00,75.2,16.8,29.71,North,0,0.0,0.0,11,0.00,,,0.00,WUHU216DAVISVP2,2013-06-20 04:40:00,
2013-06-19 21:45:00,74.9,16.6,29.72,North,0,0.0,0.0,11,0.00,,,0.00,WUHU216DAVISVP2,2013-06-20 04:45:00,
2013-06-19 21:50:00,73.7,17.7,29.72,North,0,0.0,0.0,12,0.00,,,0.00,WUHU216DAVISVP2,2013-06-20 04:50:00,
2013-06-19 21:55:00,73.1,17.3,29.72,West,260,1.0,2.0,12,0.00,,,0.00,WUHU216DAVISVP2,2013-06-20 04:55:00,
2013-06-19 22:00:00,72.9,17.1,29.72,West,260,1.0,2.0,12,0.00,,,0.00,WUHU216DAVISVP2,2013-06-20 05:00:00,
2013-06-19 22:05:00,72.7,17.0,29.72,West,261,1.0,3.0,12,0.00,,,0.00,WUHU216DAVISVP2,2013-06-20 05:05:00,
2013-06-19 22:10:00,72.7,17.0,29.72,West,279,2.0,3.0,12,0.00,,,0.00,WUHU216DAVISVP2,2013-06-20 05:10:00,
2013-06-19 22:16:00,73.3,17.4,29.72,NW,304,2.0,4.0,12,0.00,,,0.00,WUHU216DAVISVP2,2013-06-20 05:16:00,
2013-06-19 22:21:00,73.7,17.7,29.72,WNW,303,1.0,3.0,12,0.00,,,0.00,WUHU216DAVISVP2,2013-06-20 05:21:00,
2013-06-19 22:26:00,73.4,17.5,29.72,WNW,303,2.0,4.0,12,0.00,,,0.00,WUHU216DAVISVP2,2013-06-20 05:26:00,
2013-06-19 22:31:00,73.8,17.8,29.72,WNW,292,2.0,4.0,12,0.00,,,0.00,WUHU216DAVISVP2,2013-06-20 05:31:00,
2013-06-19 22:36:00,73.5,17.6,29.72,West,269,2.0,4.0,12,0.00,,,0.00,WUHU216DAVISVP2,2013-06-20 05:36:00,
2013-06-19 22:41:00,73.2,17.3,29.72,West,268,3.0,4.0,12,0.00,,,0.00,WUHU216DAVISVP2,2013-06-20 05:41:00,
2013-06-19 22:46:00,73.6,17.7,29.72,West,268,2.0,3.0,12,0.00,,,0.00,WUHU216DAVISVP2,2013-06-20 05:46:00,
2013-06-19 22:51:00,73.7,17.7,29.72,West,272,2.0,4.0,12,0.00,,,0.00,WUHU216DAVISVP2,2013-06-20 05:51:00,
2013-06-19 22:56:00,73.7,17.7,29.72,West,273,2.0,3.0,12,0.00,,,0.00,WUHU216DAVISVP2,2013-06-20 05:56:00,
2013-06-19 23:01:00,73.8,17.8,29.72,West,274,2.0,3.0,12,0.00,,,0.00,WUHU216DAVISVP2,2013-06-20 06:01:00,
2013-06-19 23:06:00,74.0,18.0,29.72,West,276,2.0,4.0,12,0.00,,,0.00,WUHU216DAVISVP2,2013-06-20 06:06:00,
2013-06-19 23:11:00,74.3,18.2,29.72,West,278,2.0,6.0,12,0.00,,,0.00,WUHU216DAVISVP2,2013-06-20 06:11:00,
2013-06-19 23:16:00,74.8,16.5,29.72,West,265,2.0,4.0,11,0.00,,,0.00,WUHU216DAVISVP2,2013-06-20 06:16:00,
2013-06-19 23:21:00,75.0,16.7,29.72,West,279,2.0,4.0,11,0.00,,,0.00,WUHU216DAVISVP2,2013-06-20 06:21:00,
2013-06-19 23:26:00,75.3,16.9,29.72,WNW,283,2.0,6.0,11,0.00,,,0.00,WUHU216DAVISVP2,2013-06-20 06:26:00,
2013-06-19 23:31:00,75.2,16.8,29.72,West,279,2.0,4.0,11,0.00,,,0.00,WUHU216DAVISVP2,2013-06-20 06:31:00,
2013-06-19 23:36:00,75.0,16.7,29.72,West,266,2.0,7.0,11,0.00,,,0.00,WUHU216DAVISVP2,2013-06-20 06:36:00,
2013-06-19 23:42:00,74.5,18.4,29.72,WSW,257,2.0,7.0,12,0.00,,,0.00,WUHU216DAVISVP2,2013-06-20 06:42:00,
2013-06-19 23:47:00,74.0,18.0,29.72,West,268,3.0,4.0,12,0.00,,,0.00,WUHU216DAVISVP2,2013-06-20 06:47:00,
2013-06-19 23:52:00,73.6,17.7,29.72,West,271,2.0,3.0,12,0.00,,,0.00,WUHU216DAVISVP2,2013-06-20 06:52:00,
2013-06-19 23:57:00,73.3,17.4,29.72,West,265,2.0,5.0,12,0.00,,,0.00,WUHU216DAVISVP2,2013-06-20 06:57:00,